Weather History for KE38 - December, 2013

Change the Weather History Date:

Sunday, December 22, 2013

  Actual Average (KMRF) Record (KMRF)
Temperature  
Mean Temperature 36 °F -  
Max Temperature 45 °F 52 °F 75 °F (2010)
Min Temperature 27 °F 22 °F 17 °F (1999)
Degree Days  
Heating Degree Days 29    
Moisture  
Dew Point 30 °F    
Average Humidity 73    
Maximum Humidity 94    
Minimum Humidity 54    
Precipitation  
Precipitation 0.00 in - - ()
Sea Level Pressure  
Sea Level Pressure 30.18 in    
Wind  
Wind Speed 13 mph (WNW)    
Max Wind Speed 30 mph    
Max Gust Speed 41 mph    
Visibility 10 miles    
Events      
Averages and records for this station are not official NWS values.
T = Trace of Precipitation, MM = Missing Value Source: NWS Daily Summary

Daily Weather History Graph

Daily Weather History Graph

Search for Another Location

Airport or City:

Trip Planner

Search our weather history database for the weather conditions in past years. The results will help you decide how hot, cold, wet, or windy it might be!

Date:

Astronomy

Dec. 22, 2013 Rise Set
Actual Time 7:47 AM CST 5:59 PM CST
Civil Twilight 7:21 AM CST 6:25 PM CST
Nautical Twilight 6:51 AM CST 6:55 PM CST
Astronomical Twilight 6:22 AM CST 7:25 PM CST
Moon 10:54 PM CST (12/22) 11:03 AM CST (12/22)
Length of Visible Light 11h 04m
Length of Day
10h 11m
Waning Gibbous, 76% of the Moon is Illuminated
Dec 22
Waning Gibbous
Dec 25
Last Quarter
Jan 1
New
Jan 7
First Quarter
Jan 15
Full

Hourly Weather History & Observations

Time (CST) Temp. Windchill Dew Point Humidity Pressure Visibility Wind Dir Wind Speed Gust Speed Precip Events Conditions
12:15 AM 43.9 °F 34.1 °F 28.0 °F 54% 29.92 in 10.0 mi West 27.6 mph 36.8 mph N/A   Clear
12:35 AM 43.5 °F 35.5 °F 28.4 °F 55% 29.93 in 10.0 mi West 18.4 mph 28.8 mph N/A   Clear
12:55 AM 42.8 °F 33.8 °F 29.1 °F 58% 29.94 in 10.0 mi West 21.9 mph 29.9 mph N/A   Clear
1:15 AM 43.0 °F 32.9 °F 29.1 °F 58% 29.94 in 10.0 mi West 27.6 mph 36.8 mph N/A   Clear
1:35 AM 42.8 °F 33.5 °F 29.7 °F 60% 29.95 in 10.0 mi West 23.0 mph 32.2 mph N/A   Clear
1:55 AM 42.8 °F 32.3 °F 30.0 °F 61% 29.95 in 10.0 mi West 29.9 mph 41.4 mph N/A   Clear
2:15 AM 42.3 °F 34.1 °F 30.2 °F 62% 29.97 in 10.0 mi West 17.3 mph 31.1 mph N/A   Clear
2:35 AM 41.9 °F 36.3 °F 30.6 °F 64% 29.99 in 10.0 mi WNW 9.2 mph 21.9 mph N/A   Scattered Clouds
2:55 AM 41.7 °F 33.1 °F 30.9 °F 66% 29.99 in 10.0 mi West 18.4 mph 27.6 mph N/A   Scattered Clouds
3:15 AM 41.0 °F 33.5 °F 31.1 °F 68% 30.00 in 10.0 mi West 13.8 mph 32.2 mph N/A   Clear
3:35 AM 41.2 °F 36.0 °F 30.7 °F 66% 30.02 in 10.0 mi WNW 8.1 mph 20.7 mph N/A   Clear
3:55 AM 40.5 °F 34.1 °F 30.2 °F 67% 30.02 in 10.0 mi West 10.4 mph 19.6 mph N/A   Clear
4:15 AM 41.0 °F 34.3 °F 30.0 °F 65% 30.03 in 10.0 mi West 11.5 mph 21.9 mph N/A   Clear
4:35 AM 39.9 °F 33.4 °F 30.2 °F 68% 30.04 in 10.0 mi West 10.4 mph - N/A   Clear
4:55 AM 40.1 °F 32.7 °F 29.8 °F 67% 30.04 in 10.0 mi West 12.7 mph 17.3 mph N/A   Clear
5:15 AM 40.6 °F 34.8 °F 29.8 °F 65% 30.06 in 10.0 mi West 9.2 mph 17.3 mph N/A   Clear
5:35 AM 40.1 °F 34.1 °F 30.2 °F 68% 30.06 in 10.0 mi West 9.2 mph 16.1 mph N/A   Clear
5:55 AM 40.1 °F 34.1 °F 30.4 °F 68% 30.07 in 10.0 mi West 9.2 mph - N/A   Mostly Cloudy
6:15 AM 40.1 °F 36.1 °F 29.7 °F 66% 30.08 in 10.0 mi WSW 5.8 mph - N/A   Overcast
6:35 AM 39.6 °F 35.4 °F 30.6 °F 70% 30.10 in 10.0 mi WSW 5.8 mph - N/A   Overcast
6:55 AM 39.6 °F 35.4 °F 30.9 °F 71% 30.11 in 10.0 mi West 5.8 mph - N/A   Overcast
7:15 AM 40.5 °F 35.8 °F 31.5 °F 70% 30.12 in 10.0 mi West 6.9 mph - N/A   Overcast
7:35 AM 41.0 °F 36.4 °F 31.6 °F 69% 30.13 in 10.0 mi West 6.9 mph - N/A   Overcast
7:55 AM 41.2 °F 35.5 °F 31.5 °F 68% 30.13 in 10.0 mi West 9.2 mph - N/A   Overcast
8:15 AM 40.5 °F 36.5 °F 31.1 °F 69% 30.15 in 10.0 mi WSW 5.8 mph - N/A   Scattered Clouds
8:35 AM 41.5 °F - 31.1 °F 66% 30.15 in 10.0 mi Calm Calm - N/A   Clear
8:55 AM 42.8 °F 38.6 °F 31.3 °F 64% 30.16 in 10.0 mi West 6.9 mph - N/A   Clear
9:15 AM 45.0 °F 39.7 °F 30.0 °F 56% 30.18 in 10.0 mi WNW 10.4 mph 16.1 mph N/A   Scattered Clouds
9:35 AM 45.5 °F 40.3 °F 29.5 °F 54% 30.19 in 10.0 mi NW 10.4 mph - N/A   Scattered Clouds
9:55 AM 43.7 °F 39.7 °F 29.8 °F 58% 30.20 in 10.0 mi NNW 6.9 mph - N/A   Scattered Clouds
10:15 AM 44.2 °F 38.4 °F 31.3 °F 60% 30.21 in 10.0 mi NNE 11.5 mph - N/A   Mostly Cloudy
10:35 AM 44.6 °F 40.2 °F 31.8 °F 61% 30.22 in 10.0 mi NNE 8.1 mph - N/A   Mostly Cloudy
10:55 AM 42.1 °F 36.1 °F 32.0 °F 67% 30.23 in 10.0 mi NE 10.4 mph 17.3 mph N/A   Overcast
11:15 AM 41.0 °F 35.8 °F 33.1 °F 73% 30.24 in 10.0 mi East 8.1 mph - N/A   Overcast
11:35 AM 40.8 °F 35.6 °F 32.2 °F 71% 30.24 in 10.0 mi ENE 8.1 mph - N/A   Overcast
11:55 AM 40.3 °F 33.4 °F 33.1 °F 75% 30.24 in 10.0 mi East 11.5 mph - N/A   Overcast
12:15 PM 38.7 °F 31.4 °F 33.3 °F 81% 30.25 in 10.0 mi East 11.5 mph - N/A   Overcast
12:35 PM 39.7 °F 33.2 °F 33.3 °F 78% 30.24 in 10.0 mi East 10.4 mph - N/A   Overcast
12:55 PM 40.3 °F 35.5 °F 33.1 °F 75% 30.24 in 10.0 mi East 6.9 mph - N/A   Overcast
1:15 PM 40.1 °F 33.6 °F 33.4 °F 77% 30.24 in 10.0 mi East 10.4 mph - N/A   Overcast
1:35 PM 39.6 °F 33.0 °F 33.3 °F 78% 30.24 in 10.0 mi East 10.4 mph - N/A   Overcast
1:55 PM 39.7 °F 33.2 °F 32.7 °F 76% 30.23 in 10.0 mi East 10.4 mph - N/A   Overcast
2:15 PM 40.1 °F 33.6 °F 32.5 °F 74% 30.23 in 10.0 mi East 10.4 mph 16.1 mph N/A   Overcast
2:35 PM 41.2 °F 35.0 °F 32.4 °F 71% 30.23 in 10.0 mi East 10.4 mph - N/A   Mostly Cloudy
2:55 PM 41.0 °F 33.9 °F 32.9 °F 73% 30.23 in 10.0 mi East 12.7 mph - N/A   Overcast
3:15 PM 41.7 °F 35.6 °F 32.5 °F 70% 30.23 in 10.0 mi ENE 10.4 mph - N/A   Mostly Cloudy
3:35 PM 40.1 °F 35.3 °F 32.2 °F 73% 30.24 in 10.0 mi ENE 6.9 mph - N/A   Mostly Cloudy
3:55 PM 41.5 °F 37.1 °F 32.0 °F 69% 30.24 in 10.0 mi East 6.9 mph - N/A   Scattered Clouds
4:15 PM 40.1 °F 35.3 °F 31.8 °F 72% 30.25 in 10.0 mi ENE 6.9 mph - N/A   Scattered Clouds
4:35 PM 42.1 °F 37.7 °F 32.0 °F 67% 30.26 in 10.0 mi East 6.9 mph - N/A   Scattered Clouds
4:55 PM 41.5 °F 37.1 °F 31.8 °F 68% 30.26 in 10.0 mi East 6.9 mph - N/A   Mostly Cloudy
5:15 PM 40.3 °F 35.5 °F 31.8 °F 72% 30.26 in 10.0 mi ENE 6.9 mph - N/A   Scattered Clouds
5:35 PM 39.6 °F 35.4 °F 31.6 °F 73% 30.27 in 10.0 mi ENE 5.8 mph - N/A   Scattered Clouds
5:55 PM 38.1 °F 35.7 °F 31.5 °F 77% 30.27 in 10.0 mi East 3.5 mph - N/A   Scattered Clouds
6:15 PM 36.5 °F 33.9 °F 31.1 °F 81% 30.28 in 10.0 mi East 3.5 mph - N/A   Clear
6:35 PM 35.8 °F 33.0 °F 30.9 °F 82% 30.28 in 10.0 mi ESE 3.5 mph - N/A   Clear
6:55 PM 35.6 °F - 30.9 °F 83% 30.29 in 10.0 mi Calm Calm - N/A   Clear
7:15 PM 32.5 °F - 29.3 °F 88% 30.30 in 10.0 mi Calm Calm - N/A   Clear
7:35 PM 33.1 °F - 29.5 °F 87% 30.31 in 10.0 mi Calm Calm - N/A   Clear
7:55 PM 31.8 °F - 27.9 °F 85% 30.31 in 10.0 mi Calm Calm - N/A   Clear
8:15 PM 30.2 °F - 27.5 °F 90% 30.32 in 10.0 mi Calm Calm - N/A   Clear
8:35 PM 29.3 °F - 27.1 °F 92% 30.32 in 10.0 mi Calm Calm - N/A   Clear
8:55 PM 28.6 °F - 26.8 °F 93% 30.33 in 10.0 mi Calm Calm - N/A   Clear
9:15 PM 28.4 °F - 26.6 °F 93% 30.34 in 10.0 mi Calm Calm - N/A   Clear
9:35 PM 28.2 °F 24.4 °F 26.2 °F 92% 30.34 in 10.0 mi West 3.5 mph - N/A   Clear
9:55 PM 27.9 °F 21.5 °F 26.2 °F 94% 30.34 in 7.0 mi West 5.8 mph - N/A   Clear
10:15 PM 27.5 °F 21.1 °F 25.7 °F 93% 30.34 in 7.0 mi WSW 5.8 mph - N/A   Clear
10:35 PM 27.5 °F 21.1 °F 25.7 °F 93% 30.35 in 7.0 mi WSW 5.8 mph - N/A   Clear
10:55 PM 27.3 °F - 25.9 °F 94% 30.35 in 7.0 mi Calm Calm - N/A   Clear
11:15 PM 27.3 °F - 25.9 °F 94% 30.35 in 7.0 mi Calm Calm - N/A   Clear
11:35 PM 27.9 °F - 26.1 °F 93% 30.35 in 7.0 mi Calm Calm - N/A   Clear
11:55 PM 27.3 °F 22.0 °F 25.5 °F 93% 30.35 in 10.0 mi SW 4.6 mph - N/A   Clear